ZF1RC George Town KY current weather conditions

sailwx.info

Wind from 143 at 0 knots gusting 1

Air temperature 30.0° C
Dewpoint 22.7° C

Last reported at 2014-Nov-23 20:40 UTC.
Time now 2014-Nov-23 21:21 UTC

Location: N 19°16' W 081°23'.
View on Google Maps.

See reports from other nearby stations

  
Tides and Currents Weather Stations Pressure Air Temp Water Temp Dewpoint Dewpoint Depression Visibility Wind Speed Wind Dir Waves Ship Positions
date/time (UTC)wind fromknots sea level pressurealtimeterstation pressurevisibilityair tempwater tempwave heightnotes
2014-Nov-23 20:40 143 0 gusting 1 30.0
2014-Nov-23 20:30 146 0 gusting 0 30.0
2014-Nov-23 20:10 140 0 gusting 1 30.0
2014-Nov-23 20:00 140 30.0
2014-Nov-23 19:50 155 0 gusting 0 30.0
2014-Nov-23 19:40 113 0 gusting 1 30.0
2014-Nov-23 19:30 120 30.6
2014-Nov-23 19:10 005 30.6
2014-Nov-23 19:00 170 1 gusting 2 30.6
2014-Nov-23 18:50 246 30.6
2014-Nov-23 18:40 179 30.6
2014-Nov-23 18:30 114 0 gusting 1 30.6
2014-Nov-23 18:10 067 0 gusting 1 30.6
2014-Nov-23 18:00 282 30.6
2014-Nov-23 17:50 109 1 gusting 2 30.6
2014-Nov-23 17:40 130 0 gusting 1 30.6
2014-Nov-23 17:30 126 0 gusting 5 30.6
2014-Nov-23 17:10 140 1 gusting 5 30.6
2014-Nov-23 17:00 015 1 gusting 2 30.6
2014-Nov-23 16:50 056 0 gusting 2 30.6
2014-Nov-23 16:40 067 30.6
2014-Nov-23 16:30 147 30.6
2014-Nov-23 16:10 172 0 gusting 4 30.6
2014-Nov-23 16:00 148 0 gusting 1 30.0
2014-Nov-23 15:50 279 30.6
2014-Nov-23 15:40 104 3 gusting 6 30.0
2014-Nov-23 15:30 061 0 gusting 1 30.0
2014-Nov-23 15:10 244 30.6
2014-Nov-23 15:00 014 29.4
2014-Nov-23 14:50 151 0 gusting 2 29.4
2014-Nov-23 14:40 103 1 gusting 1 29.4
2014-Nov-23 14:30 326 0 gusting 2 29.4
2014-Nov-23 14:10 307 0 gusting 6 29.4
2014-Nov-23 14:00 117 4 gusting 6 28.3
2014-Nov-23 13:40 162 0 gusting 2 27.8
2014-Nov-23 13:30 132 1 gusting 2 27.8
2014-Nov-23 13:10 113 0 gusting 7 27.8
2014-Nov-23 13:00 121 0 gusting 6 27.2
2014-Nov-23 12:40 100 1 gusting 4 26.7
2014-Nov-23 12:30 104 1 gusting 4 26.7
2014-Nov-23 12:10 077 3 gusting 4 25.6
2014-Nov-23 12:00 093 2 gusting 5 25.6
2014-Nov-23 11:50 119 2 gusting 4 25.6
2014-Nov-23 11:40 072 2 gusting 4 25.6
2014-Nov-23 11:30 093 4 gusting 6 25.0
2014-Nov-23 11:10 091 3 gusting 4 25.6
2014-Nov-23 11:00 104 2 gusting 5 25.6
2014-Nov-23 10:50 081 1 gusting 4 25.6
2014-Nov-23 10:40 119 2 gusting 4 25.6
2014-Nov-23 10:30 099 2 gusting 2 25.6
2014-Nov-23 10:10 083 4 gusting 4 25.6
2014-Nov-23 10:00 081 1 gusting 2 25.6
2014-Nov-23 09:40 087 4 gusting 4 25.6
2014-Nov-23 09:30 074 1 gusting 4 25.6
2014-Nov-23 09:10 099 2 gusting 5 25.6
2014-Nov-23 09:00 094 4 gusting 5 25.6
2014-Nov-23 08:50 087 1 gusting 5 25.0
2014-Nov-23 08:40 088 2 gusting 5 25.6
2014-Nov-23 08:30 122 1 gusting 4 25.6
2014-Nov-23 08:10 101 2 gusting 2 26.1
2014-Nov-23 08:00 067 0 gusting 2 26.1
2014-Nov-23 07:50 109 0 gusting 1 26.1
2014-Nov-23 07:40 073 0 gusting 2 26.1
2014-Nov-23 07:30 197 1 gusting 2 25.6
2014-Nov-23 07:10 100 5 gusting 5 25.0
2014-Nov-23 07:00 111 4 gusting 5 24.4
2014-Nov-23 06:50 129 2 gusting 5 24.4
2014-Nov-23 06:40 086 2 gusting 4 24.4
2014-Nov-23 06:30 100 2 gusting 4 24.4
2014-Nov-23 06:10 051 1 gusting 2 24.4
2014-Nov-23 06:00 076 0 gusting 2 24.4
2014-Nov-23 05:40 090 1 gusting 4 25.0
2014-Nov-23 05:30 112 2 gusting 2 25.0
2014-Nov-23 05:10 081 3 gusting 5 25.0
2014-Nov-23 05:01 092 2 gusting 5 25.0
2014-Nov-23 04:50 096 2 gusting 4 24.4
2014-Nov-23 04:40 106 1 gusting 4 24.4
2014-Nov-23 04:30 083 1 gusting 4 25.0
2014-Nov-23 04:10 046 2 gusting 5 25.0
2014-Nov-23 04:00 071 2 gusting 5 25.0
2014-Nov-23 03:40 101 4 gusting 4 25.0
2014-Nov-23 03:30 083 1 gusting 5 25.0
2014-Nov-23 03:10 083 1 gusting 4 25.0
2014-Nov-23 03:00 094 2 gusting 4 25.0
2014-Nov-23 02:50 096 1 gusting 4 25.0
2014-Nov-23 02:40 096 2 gusting 4 25.6
2014-Nov-23 02:30 073 2 gusting 4 25.6
2014-Nov-23 02:10 095 5 gusting 5 25.6
2014-Nov-23 02:00 108 3 gusting 5 25.6
2014-Nov-23 01:50 105 2 gusting 5 25.6
2014-Nov-23 01:40 086 4 gusting 6 25.6
2014-Nov-23 01:30 087 2 gusting 4 25.6
2014-Nov-23 01:10 068 1 gusting 4 25.6
2014-Nov-23 01:00 083 2 gusting 4 25.6
2014-Nov-23 00:50 089 3 gusting 4 25.6
2014-Nov-23 00:40 106 2 gusting 6 25.6
2014-Nov-23 00:30 106 1 gusting 4 25.6
2014-Nov-23 00:10 093 4 gusting 6 25.6
2014-Nov-23 00:00 069 2 gusting 5 26.1
2014-Nov-22 23:50 093 2 gusting 5 26.1
2014-Nov-22 23:40 052 2 gusting 2 26.1
2014-Nov-22 23:30 092 3 gusting 4 26.1
2014-Nov-22 23:10 349 1 gusting 4 26.1
2014-Nov-22 23:00 073 4 gusting 6 26.1
2014-Nov-22 22:54 068 2 gusting 6 26.1
2014-Nov-22 22:50 101 5 gusting 7 26.1
2014-Nov-22 22:40 092 4 gusting 6 26.7
2014-Nov-22 22:30 091 4 gusting 7 26.7
2014-Nov-22 22:10 069 2 gusting 4 27.2
2014-Nov-22 22:00 094 2 gusting 7 27.2
2014-Nov-22 21:50 105 3 gusting 10 28.3
2014-Nov-22 21:40 090 4 gusting 6 28.3
2014-Nov-22 21:30 127 2 gusting 10 28.9
2014-Nov-22 21:10 078 1 gusting 6 28.9
2014-Nov-22 21:00 091 4 gusting 10 28.3
2014-Nov-22 20:50 042 3 gusting 8 28.9
2014-Nov-22 20:40 082 7 gusting 12 28.3
2014-Nov-22 20:30 076 3 gusting 8 28.9
2014-Nov-22 20:10 072 6 gusting 10 28.9
2014-Nov-22 20:00 081 9 gusting 12 28.9
2014-Nov-22 19:50 025 6 gusting 7 28.9
2014-Nov-22 19:40 064 6 gusting 8 29.4
2014-Nov-22 19:30 085 6 gusting 13 29.4
2014-Nov-22 19:20 065 5 gusting 10 28.9
2014-Nov-22 19:10 085 6 gusting 7 28.9
2014-Nov-22 19:00 037 5 gusting 13 28.9
2014-Nov-22 18:50 082 5 gusting 10 28.9
2014-Nov-22 18:40 095 6 gusting 11 28.9
2014-Nov-22 18:30 060 7 gusting 12 28.9
2014-Nov-22 18:10 094 6 gusting 8 29.4
2014-Nov-22 18:00 088 4 gusting 6 29.4
2014-Nov-22 17:50 354 6 gusting 10 29.4
2014-Nov-22 17:40 063 6 gusting 8 29.4
2014-Nov-22 17:30 066 6 gusting 8 29.4
2014-Nov-22 17:10 093 7 gusting 11 28.9
2014-Nov-22 17:00 061 5 gusting 8 28.9
2014-Nov-22 16:40 058 4 gusting 10 29.4
2014-Nov-22 16:30 044 4 gusting 11 28.9
2014-Nov-22 16:10 074 6 gusting 7 29.4
2014-Nov-22 16:00 020 6 gusting 10 28.9
2014-Nov-22 15:40 077 5 gusting 7 28.9
2014-Nov-22 15:30 060 6 gusting 7 28.9
2014-Nov-22 15:10 079 6 gusting 10 28.3
2014-Nov-22 15:00 061 4 gusting 6 28.9
2014-Nov-22 14:50 065 7 gusting 8 28.3
2014-Nov-22 14:40 096 6 gusting 10 28.3
2014-Nov-22 14:30 088 4 gusting 6 28.3
2014-Nov-22 14:10 095 5 gusting 6 28.3
2014-Nov-22 14:00 084 5 gusting 6 27.8
2014-Nov-22 13:50 136 5 gusting 6 27.8
2014-Nov-22 13:40 081 4 gusting 7 27.2
2014-Nov-22 13:30 109 4 gusting 5 27.2
2014-Nov-22 13:10 066 1 gusting 2 26.7
2014-Nov-22 13:00 116 1 gusting 4 26.7
2014-Nov-22 12:50 091 1 gusting 4 26.1
2014-Nov-22 12:40 083 1 gusting 2 25.6
2014-Nov-22 12:30 101 2 gusting 2 25.6
2014-Nov-22 12:20 060 2 gusting 2 25.0
2014-Nov-22 12:10 075 1 gusting 1 25.0
2014-Nov-22 12:00 067 0 gusting 1 25.0
2014-Nov-22 11:50 083 1 gusting 1 24.4
2014-Nov-22 11:40 066 0 gusting 1 24.4
2014-Nov-22 11:30 094 1 gusting 1 24.4
2014-Nov-22 11:10 058 0 gusting 2 24.4
2014-Nov-22 11:00 063 1 gusting 2 24.4
2014-Nov-22 10:50 092 1 gusting 1 24.4
2014-Nov-22 10:40 093 0 gusting 1 24.4
2014-Nov-22 10:30 055 1 gusting 1 24.4
2014-Nov-22 10:10 062 0 gusting 2 24.4
2014-Nov-22 10:00 088 1 gusting 1 24.4
2014-Nov-22 09:50 082 0 gusting 0 24.4
2014-Nov-22 09:40 085 1 gusting 2 24.4
2014-Nov-22 09:30 092 1 gusting 4 24.4
2014-Nov-22 09:10 103 1 gusting 2 24.4
2014-Nov-22 09:00 107 2 gusting 2 24.4
2014-Nov-22 08:50 108 1 gusting 1 24.4
2014-Nov-22 08:40 068 2 gusting 2 24.4
2014-Nov-22 08:30 074 1 gusting 2 24.4
2014-Nov-22 08:10 108 1 gusting 1 24.4
2014-Nov-22 08:00 071 1 gusting 2 24.4
2014-Nov-22 07:50 088 1 gusting 2 24.4
2014-Nov-22 07:40 103 1 gusting 2 24.4
2014-Nov-22 07:30 132 1 gusting 1 24.4
2014-Nov-22 07:10 096 0 gusting 1 24.4
2014-Nov-22 07:00 064 0 gusting 1 24.4
2014-Nov-22 06:40 102 1 gusting 2 24.4
2014-Nov-22 06:30 083 1 gusting 1 24.4
2014-Nov-22 06:10 097 1 gusting 2 24.4
2014-Nov-22 06:00 084 1 gusting 1 24.4
2014-Nov-22 05:50 072 0 gusting 0 24.4
2014-Nov-22 05:40 077 0 gusting 1 24.4
2014-Nov-22 05:30 081 1 gusting 1 24.4
2014-Nov-22 05:10 082 1 gusting 1 24.4
2014-Nov-22 05:00 095 1 gusting 1 24.4
2014-Nov-22 04:50 100 0 gusting 1 25.0
2014-Nov-22 04:40 109 1 gusting 1 25.0
2014-Nov-22 04:30 099 1 gusting 1 25.0
2014-Nov-22 04:10 097 0 gusting 0 25.0
2014-Nov-22 04:00 064 0 gusting 0 25.0
2014-Nov-22 03:50 083 0 gusting 1 25.0
2014-Nov-22 03:40 075 0 gusting 1 25.0
2014-Nov-22 03:30 090 0 gusting 1 25.0
2014-Nov-22 03:10 086 0 gusting 1 25.0
2014-Nov-22 03:00 060 1 gusting 1 25.6
2014-Nov-22 02:50 087 1 gusting 1 25.6
2014-Nov-22 02:40 034 0 gusting 1 25.6
2014-Nov-22 02:30 084 0 gusting 1 25.6
2014-Nov-22 02:10 059 0 gusting 2 25.6
2014-Nov-22 02:00 072 0 gusting 1 25.6
2014-Nov-22 01:50 068 1 gusting 1 25.6
2014-Nov-22 01:40 071 1 gusting 1 25.6
2014-Nov-22 01:30 066 2 gusting 2 25.6
2014-Nov-22 01:10 104 0 gusting 1 25.6
2014-Nov-22 01:00 093 1 gusting 1 25.6
2014-Nov-22 00:50 083 1 gusting 2 25.6
2014-Nov-22 00:40 069 1 gusting 1 25.6
2014-Nov-22 00:30 090 1 gusting 2 25.6
2014-Nov-22 00:20 098 2 gusting 2 26.1
2014-Nov-22 00:10 063 1 gusting 2 26.1
2014-Nov-22 00:00 097 0 gusting 1 26.1
2014-Nov-21 23:50 107 2 gusting 2 26.1
2014-Nov-21 23:40 103 1 gusting 4 26.1
2014-Nov-21 23:30 127 2 gusting 4 26.7
2014-Nov-21 23:10 094 2 gusting 4 26.7
2014-Nov-21 23:00 108 1 gusting 2 26.7
2014-Nov-21 22:54 106 2 gusting 5 27.2
2014-Nov-21 22:50 113 2 gusting 6 27.2
2014-Nov-21 22:40 098 1 gusting 7 27.8
2014-Nov-21 22:30 107 5 gusting 6 27.8
2014-Nov-21 22:20 096 0 gusting 5 28.3
2014-Nov-21 22:10 110 4 gusting 5 28.9
2014-Nov-21 22:00 174 1 gusting 1 29.4
2014-Nov-21 21:50 139 29.4
2014-Nov-21 21:40 049 30.0
2014-Nov-21 21:30 049 30.0
2014-Nov-21 21:10 117 0 gusting 2 30.0
2014-Nov-21 21:00 162 0 gusting 0 30.0